Regional Weather Roundup
Issued by NWS

Home | Current Version | Previous Version | Text Only | Print | Product List | Glossary On
Versions: 1 2 3 4 5 6 7 8 9 10 11 12 13 14 15 16 17 18 19 20 21 22 23 24 25 26 27 28 29 30 31 32 33 34 35 36 37 38 39 40 41 42 43 44 45 46 47 48 49 50
673
ASUS43 KLOT 090308
RWRIL

ILLINOIS REGIONAL WEATHER ROUNDUP
NATIONAL WEATHER SERVICE CHICAGO/ROMEOVILLE IL
900 PM CST SUN DEC 08 2019

NOTE: "FAIR" INDICATES FEW OR NO CLOUDS BELOW 12,000 FEET WITH NO
SIGNIFICANT WEATHER AND/OR OBSTRUCTIONS TO VISIBILITY.

* THESE STATIONS ARE NOT UNDER NWS QUALITY CONTROL. THEY ALSO MAY NOT
  REPORT WEATHER SUCH AS PRECIPITATION OR FOG.

ILZ001-002-007-009-015-016-024-090400-
NORTHWEST ILLINOIS

CITY           SKY/WX    TMP DP  RH WIND       PRES   REMARKS
MOLINE         CLOUDY    45  41  86 E5        29.73F
STERLING*      CLOUDY    43  42  97 CALM      29.76F
SAVANNA*       CLOUDY    39  37  93 CALM      29.75F
$$

ILZ003-004-008-010-011-017-018-090400-
NORTH CENTRAL ILLINOIS

CITY           SKY/WX    TMP DP  RH WIND       PRES   REMARKS
ROCKFORD       CLOUDY    45  41  86 SE3       29.77F FOG
FREEPORT*      CLOUDY    40  40 100 CALM      29.77F FOG
ROCHELLE*      CLOUDY    42  42  98 SE6       29.78F FOG
DE KALB*       CLOUDY    43  42  97 SE6       29.79S FOG
PERU*          CLOUDY    44  41  89 S7        29.79S
$$

ILZ005-006-012>014-019>023-090400-
NORTHEAST ILLINOIS

CITY           SKY/WX    TMP DP  RH WIND       PRES   REMARKS
CHICAGO-OHARE  CLOUDY    45  41  86 SE5       29.79F
CHICAGO-MIDWAY CLOUDY    47  42  83 S3        29.80F
SCHAUMBURG     NOT AVBL
AURORA         CLOUDY    44  40  85 SE5       29.78F FOG
LANSING*       FAIR      47  44  88 S9        29.81F
JOLIET*        CLOUDY    47  47 100 S5        29.78F
WAUKEGAN       CLOUDY    44  39  82 CALM      29.78F HAZE
DUPAGE AIRPORT CLOUDY    45  41  86 S6        29.78F
KANKAKEE*      CLOUDY    48  43  83 S10       29.82F
WHEELING       CLOUDY    45  40  82 CALM      29.81F
MORRIS*        CLOUDY    42  42  99 SE7       29.78F
ROMEOVILLE*    CLOUDY    42  41  95 S7        29.80S
NORTHERLY ISL    N/A     47  41  80 S9          N/A
$$

LMZ740>746-090400-
SOUTHERN LAKE MICHIGAN

STATION/POSITION SKY/WX   TEMP    WIND        PRES    VSBY  WAVE
                          AIR SEA DIR/SP/G                  HT/PER
                          (F)     (DEG/KT/KT) (MB)    (MI)  (FT/S)
HARRISON CRIB              48     190/  8/  9   N/A
NORTHERLY ISL              47     190/  6/  9   N/A
CALUMET HARBOR             47     190/  4/  6 1008.9F
MICHIGAN CITY              49     180/  8/ 10   N/A
$$

ILZ025>027-034>036-040-047-049-050-058-095>099-090400-
WEST-CENTRAL ILLINOIS

CITY           SKY/WX    TMP DP  RH WIND       PRES   REMARKS
QUINCY         CLOUDY    50  41  71 S9        29.72S
GALESBURG*     CLOUDY    47  42  82 E7        29.75S
MACOMB*        CLOUDY    45  41  86 S10       29.76S
JACKSONVILLE*  CLEAR     46  42  84 S9        29.76F
PITTSFIELD*    CLOUDY    48  44  85 S12       29.76S
$$

ILZ028>032-037-038-041>044-048-051>054-059>061-090400-
CENTRAL ILLINOIS

CITY           SKY/WX    TMP DP  RH WIND       PRES   REMARKS
PONTIAC        FAIR      46  42  88 S7        29.80F
BLOOMINGTON    FAIR      45  43  93 S18       29.78F
DECATUR        FAIR      48  42  80 S14       29.81F
PEORIA         FAIR      46  41  82 S9        29.77F
LACON*         FAIR      44  41  90 SE5       29.76F
LINCOLN*       MOCLDY    46  45  93 S14       29.79F
SPRINGFIELD    MOCLDY    47  42  83 S16G23    29.79F
TAYLORVILLE    FAIR      46  43  91 S16       29.80F
$$

ILZ033-039-045-046-055>057-062-063-090400-
EAST-CENTRAL ILLINOIS

CITY           SKY/WX    TMP DP  RH WIND       PRES   REMARKS
CHAMPAIGN      FAIR      48  44  86 S17       29.82F
DANVILLE*      FAIR      50  45  82 S13       29.82F
RANTOUL*       MOCLDY    48  45  87 S15G21    29.82F
MATTOON        MOCLDY    49  44  83 S10       29.83F
PARIS*         FAIR      50  46  87 CALM      29.86F
$$

ILZ079-100>102-090400-
SOUTHWEST ILLINOIS

CITY           SKY/WX    TMP DP  RH WIND       PRES   REMARKS
ALTON          CLOUDY    46  46 100 S17       29.80S
BELLEVILLE     LGT RAIN  50  46  87 S7        29.81R
CAHOKIA*       CLOUDY    49  43  80 S8        29.80F
SPARTA*        CLOUDY    51  48  92 S15G22    29.83S
$$

ILZ064>066-069>071-074>076-080>082-084>086-088>090-092>094-090400-
SOUTH-CENTRAL ILLINOIS

CITY           SKY/WX    TMP DP  RH WIND       PRES   REMARKS
CARBONDALE     FAIR      48  45  89 S9        29.83F
CAIRO*         MOCLDY    45  45  98 CALM      29.87F FOG
EFFINGHAM*     FAIR      49  38  65 SE8       29.86F
MARION         CLOUDY    48  45  90 S8        29.85F
MT. VERNON     CLOUDY    49  45  86 S7        29.85F
CENTRALIA*     CLEAR     49  47  92 S15       29.82F
SALEM*         FAIR      51  46  84 S10       29.83F
METROPOLIS*    MOCLDY    56  49  76 S9        29.90F
$$

ILZ067-068-072-073-078-083-087-091-090400-
SOUTHEAST ILLINOIS

CITY           SKY/WX    TMP DP  RH WIND       PRES   REMARKS
LAWRENCEVILLE  MOCLDY    51  45  79 S10       29.88F
FLORA*         MOCLDY    48  45  87 S9        29.85F
FAIRFIELD*     FAIR      50  45  83 S3        29.85F
HARRISBURG*    FAIR      51  50  94 S9        29.87F
ROBINSON*      FAIR      50  46  84 S10       29.88F
CARMI*         FAIR      50  46  87 SE8       29.87F
$$

ABBREVIATIONS USED IN REMARKS
   TC - TEMPERATURE IN CELSIUS
  WCI - WIND CHILL INDEX
   HX - HEAT INDEX
  VSB - VISIBILITY
$$





USA.gov is the U.S. government's official web portal to all federal, state and local government web resources and services.